Weather History for Annette Island, AK

Change the Weather History Date:

Monday, December 31, 2012

  Actual Average Record
Temperature  
Mean Temperature 44 °F 37 °F  
Max Temperature 46 °F 41 °F 52 °F (2001)
Min Temperature 41 °F 32 °F 2 °F (1949)
Degree Days  
Heating Degree Days 21 28  
Month to date heating degree days 909 861  
Since 1 July heating degree days 3039 2911  
Cooling Degree Days 0    
Month to date cooling degree days 0  
Year to date cooling degree days 7  
Moisture  
Dew Point 38 °F    
Average Humidity 0    
Maximum Humidity 0    
Minimum Humidity 0    
Precipitation  
Precipitation 0.11 in 0.34 in 1.79 in (1972)
Month to date precipitation 8.21 10.72  
Year to date precipitation 103.32 101.63  
Snow  
Snow 0.00 in 0.30 in 12.80 in (1964)
Month to date snowfall 11.4 8.1  
Since 1 July snowfall 11.4 11.7  
Snow Depth 0.00 in    
Sea Level Pressure  
Sea Level Pressure 30.16 in    
Wind  
Wind Speed 11 mph (SSE)    
Max Wind Speed 26 mph    
Max Gust Speed 36 mph    
Visibility 9 miles    
Events Rain    
T = Trace of Precipitation, MM = Missing Value Source: NWS Daily Summary

Daily Weather History Graph

Daily Weather History Graph

Search for Another Location

Airport:

Trip Planner

Search our weather history database for the weather conditions in past years. The results will help you decide how hot, cold, wet, or windy it might be!

Date:

Astronomy

Dec. 31, 2012 Rise Set
Actual Time 8:11 AM AKST 3:28 PM AKST
Civil Twilight 7:26 AM AKST 4:13 PM AKST
Nautical Twilight 6:38 AM AKST 5:00 PM AKST
Astronomical Twilight 5:54 AM AKST 5:44 PM AKST
Moon 7:46 PM AKST (12/31) 9:19 AM AKST (12/31)
Length of Visible Light 8h 46m
Length of Day
7h 16m
Waning Gibbous, 89% of the Moon is Illuminated
Dec 31
Waning Gibbous
Jan 4
Last Quarter
Jan 11
New
Jan 18
First Quarter
Jan 26
Full

Hourly Weather History & Observations

Time (AKST) Temp. Windchill Dew Point Humidity Pressure Visibility Wind Dir Wind Speed Gust Speed Precip Events Conditions
12:53 AM 42.1 °F 33.6 °F 39.0 °F 89% 29.83 in 4.0 mi ESE 18.4 mph 27.6 mph 0.00 in Rain Light Rain
1:23 AM 41.0 °F 32.5 °F 39.2 °F 93% 29.82 in 3.0 mi ESE 17.3 mph 28.8 mph 0.03 in Rain Light Rain
1:30 AM 41.0 °F 32.5 °F 39.2 °F 93% 29.82 in 3.0 mi ESE 17.3 mph 28.8 mph 0.04 in Rain Rain
1:53 AM 41.0 °F 32.5 °F 39.9 °F 96% 29.83 in 4.0 mi ESE 17.3 mph 24.2 mph 0.07 in Rain Light Rain
2:02 AM 42.8 °F 35.1 °F 39.2 °F 87% 29.83 in 2.5 mi ESE 16.1 mph 29.9 mph 0.01 in Rain Light Rain
2:15 AM 42.8 °F 35.8 °F 39.2 °F 87% 29.83 in 6.0 mi ESE 13.8 mph 23.0 mph 0.03 in Rain Light Rain
2:45 AM 42.8 °F 38.6 °F 41.0 °F 93% 29.87 in 10.0 mi WSW 6.9 mph 17.3 mph 0.04 in Rain Light Rain
3:53 AM 44.1 °F 39.5 °F 39.9 °F 85% 29.97 in 10.0 mi WSW 8.1 mph 17.3 mph 0.00 in   Overcast
4:19 AM 44.6 °F 39.7 °F 37.4 °F 76% 30.00 in 10.0 mi WSW 9.2 mph - N/A   Overcast
4:53 AM 43.0 °F 37.2 °F 37.0 °F 80% 30.05 in 10.0 mi SW 10.4 mph 16.1 mph N/A   Clear
5:53 AM 42.1 °F 37.1 °F 37.0 °F 82% 30.11 in 10.0 mi SSW 8.1 mph - N/A   Mostly Cloudy
6:53 AM 42.1 °F 37.7 °F 36.0 °F 79% 30.15 in 10.0 mi SW 6.9 mph - N/A   Mostly Cloudy
7:53 AM 42.1 °F 38.4 °F 36.0 °F 79% 30.19 in 10.0 mi South 5.8 mph - N/A   Clear
8:53 AM 42.1 °F - 37.0 °F 82% 30.24 in 10.0 mi Calm Calm - N/A   Scattered Clouds
9:53 AM 44.1 °F 42.5 °F 37.9 °F 79% 30.27 in 10.0 mi Variable 3.5 mph - N/A   Overcast
10:53 AM 45.0 °F 42.6 °F 39.0 °F 80% 30.28 in 10.0 mi South 4.6 mph - N/A   Partly Cloudy
11:53 AM 45.0 °F 42.6 °F 39.0 °F 80% 30.30 in 10.0 mi Variable 4.6 mph - N/A   Mostly Cloudy
12:53 PM 44.1 °F 41.5 °F 39.0 °F 82% 30.32 in 10.0 mi South 4.6 mph - N/A   Scattered Clouds
1:53 PM 44.1 °F 41.5 °F 39.0 °F 82% 30.31 in 10.0 mi Variable 4.6 mph - N/A   Overcast
2:53 PM 42.1 °F - 39.0 °F 89% 30.33 in 10.0 mi Calm Calm - N/A   Overcast
4:53 PM 35.1 °F - 34.0 °F 96% 30.37 in 8.0 mi Calm Calm - N/A   Overcast
5:53 PM 35.1 °F - 34.0 °F 96% 30.39 in 9.0 mi Calm Calm - N/A   Overcast
6:53 PM 36.0 °F - 35.1 °F 97% 30.39 in 10.0 mi Calm Calm - N/A   Overcast
7:20 PM 37.4 °F 33.8 °F 35.6 °F 93% 30.36 in 10.0 mi ESE 4.6 mph - N/A   Overcast
7:53 PM 41.0 °F 36.4 °F 37.9 °F 89% 30.37 in 10.0 mi ESE 6.9 mph - N/A   Overcast
8:53 PM 41.0 °F 33.9 °F 37.9 °F 89% 30.37 in 10.0 mi ESE 12.7 mph - N/A   Overcast
9:53 PM 41.0 °F 34.7 °F 37.0 °F 86% 30.38 in 10.0 mi SE 10.4 mph - N/A   Overcast
11:53 PM 43.0 °F 38.2 °F 34.0 °F 71% 30.36 in 10.0 mi ESE 8.1 mph - N/A   Overcast